This is the latest recevied weather packets stored in our database for station/object W4DEX-2. If no packets are shown the sender has not sent any weather packets the latest 10 day(s).
| Time | Temp. | Humidity | Pressure | Rain* | Wind** | Luminosity | Snow |
|---|---|---|---|---|---|---|---|
| 1778073302 | 18.33° C | 68% | 1013.8 hPa | 0 mm | 5.36 m/s, 174° | - | - |
| 1778073003 | 18.33° C | 68% | 1013.7 hPa | 0 mm | 7.15 m/s, 178° | - | - |
| 1778072703 | 17.78° C | 68% | 1013.8 hPa | 0 mm | 5.36 m/s, 181° | - | - |
| 1778072403 | 17.78° C | 68% | 1013.8 hPa | 0 mm | 4.92 m/s, 174° | - | - |
| 1778072102 | 17.78° C | 68% | 1013.8 hPa | 0 mm | 5.81 m/s, 174° | - | - |
| 1778071802 | 17.78° C | 68% | 1014 hPa | 0 mm | 5.81 m/s, 163° | - | - |
| 1778071202 | 17.78° C | 68% | 1014.2 hPa | 0 mm | 5.36 m/s, 172° | - | - |
| 1778070902 | 17.22° C | 69% | 1014.3 hPa | 0 mm | 4.92 m/s, 181° | - | - |
| 1778070303 | 17.22° C | 70% | 1014.3 hPa | 0 mm | 4.47 m/s, 180° | - | - |
| 1778070002 | 17.22° C | 72% | 1014.2 hPa | 0 mm | 4.92 m/s, 176° | - | - |
| 1778069702 | 16.67° C | 72% | 1014.1 hPa | 0 mm | 4.92 m/s, 179° | - | - |
| 1778069403 | 16.67° C | 72% | 1014 hPa | 0 mm | 5.36 m/s, 175° | - | - |
| 1778069103 | 16.67° C | 73% | 1013.8 hPa | 0 mm | 5.36 m/s, 175° | - | - |
| 1778068803 | 16.11° C | 74% | 1013.9 hPa | 0 mm | 4.92 m/s, 176° | - | - |
| 1778067302 | 15.56° C | 75% | 1013.8 hPa | 0 mm | 4.02 m/s, 177° | - | - |
| 1778067002 | 15.56° C | 75% | 1013.4 hPa | 0 mm | 5.36 m/s, 176° | - | - |
| 1778066403 | 15.56° C | 75% | 1013.4 hPa | 0 mm | 4.47 m/s, 171° | - | - |
| 1778065803 | 15.56° C | 76% | 1013 hPa | 0 mm | 4.92 m/s, 176° | - | - |
| 1778065502 | 15.56° C | 76% | 1012.9 hPa | 0 mm | 5.36 m/s, 177° | - | - |
| 1778064903 | 15° C | 76% | 1013.2 hPa | 0 mm | 5.36 m/s, 176° | - | - |
| 1778064602 | 15° C | 76% | 1012.9 hPa | 0 mm | 4.92 m/s, 176° | - | - |
| 1778064302 | 15° C | 76% | 1012.8 hPa | 0 mm | 4.47 m/s, 174° | - | - |
| 1778063702 | 15° C | 75% | 1012.8 hPa | 0 mm | 5.36 m/s, 175° | - | - |
| 1778063402 | 15.56° C | 75% | 1012.6 hPa | 0 mm | 5.36 m/s, 175° | - | - |
| 1778062502 | 15.56° C | 74% | 1012.9 hPa | 0 mm | 5.36 m/s, 177° | - | - |
* Rain latest hour (hover to see other rain measurements)
** Current wind speed in m/s (hover to see current wind gust speed)